Lima, OH

10:50 PM EST on December 02, 2016 (GMT -0500)
Lima Allen County

Weather History for KAOH - April, 2013

Change the Weather History Date:

Friday, April 12, 2013

  Actual Average (KFDY) Record (KFDY)
Temperature  
Mean Temperature 44 °F -  
Max Temperature 50 °F 58 °F 81 °F (1977)
Min Temperature 39 °F 36 °F 24 °F (1950)
Degree Days  
Heating Degree Days 20    
Moisture  
Dew Point 38 °F    
Average Humidity 79    
Maximum Humidity 93    
Minimum Humidity 61    
Precipitation  
Precipitation 0.28 in - - ()
Sea Level Pressure  
Sea Level Pressure 29.66 in    
Wind  
Wind Speed 11 mph (West)    
Max Wind Speed 23 mph    
Max Gust Speed 29 mph    
Visibility 7 miles    
Events Rain    
Averages and records for this station are not official NWS values.
T = Trace of Precipitation, MM = Missing Value Source: NWS Daily Summary

Daily Weather History Graph

Daily Weather History Graph

Search for Another Location

Airport or City:

Trip Planner

Search our weather history database for the weather conditions in past years. The results will help you decide how hot, cold, wet, or windy it might be!

Date:

Astronomy

Apr. 12, 2013 Rise Set
Actual Time 7:01 AM EDT 8:12 PM EDT
Civil Twilight 6:33 AM EDT 8:40 PM EDT
Nautical Twilight 5:59 AM EDT 9:14 PM EDT
Astronomical Twilight 5:24 AM EDT 9:50 PM EDT
Moon 8:10 AM EDT (4/12) 10:43 PM EDT (4/12)
Length of Visible Light 14h 07m
Length of Day
13h 11m
Waxing Crescent, 5% of the Moon is Illuminated
Apr 12
Waxing Crescent
Apr 18
First Quarter
Apr 25
Full
May 2
Last Quarter
May 9
New

Hourly Weather History & Observations

Time (EDT) Temp. Windchill Dew Point Humidity Pressure Visibility Wind Dir Wind Speed Gust Speed Precip Events Conditions
12:03 AM 48.2 °F - 46.4 °F 93% 29.57 in 2.0 mi ESE 3.5 mph - 0.03 in Rain Rain
12:10 AM 48.2 °F - 44.6 °F 87% 29.57 in 1.8 mi East 4.6 mph - 0.05 in Rain Rain
12:19 AM 48.2 °F - 46.4 °F 93% 29.55 in 2.0 mi East 4.6 mph - 0.06 in Rain Light Rain
12:31 AM 48.2 °F - 46.4 °F 93% 29.54 in 4.0 mi NE 3.5 mph - 0.07 in   Overcast
12:53 AM 48.0 °F - 46.0 °F 93% 29.54 in 6.0 mi NNE 3.5 mph - 0.07 in   Overcast
1:33 AM 48.2 °F - 46.4 °F 93% 29.51 in 5.0 mi East 5.8 mph - N/A   Overcast
1:53 AM 48.9 °F - 46.9 °F 93% 29.51 in 5.0 mi East 4.6 mph - N/A   Overcast
2:24 AM 50.0 °F - 46.4 °F 87% 29.49 in 1.8 mi Calm Calm - 0.01 in Rain Light Rain
2:37 AM 48.2 °F - 44.6 °F 87% 29.52 in 3.0 mi WNW 18.4 mph 23.0 mph 0.02 in Rain Light Rain
2:48 AM 46.4 °F 41.9 °F 42.8 °F 87% 29.51 in 3.0 mi NW 9.2 mph - 0.03 in Rain Light Rain
2:53 AM 46.0 °F 41.4 °F 43.0 °F 89% 29.52 in 3.0 mi NW 9.2 mph - 0.04 in Rain Light Rain
2:57 AM 44.6 °F 39.2 °F 42.8 °F 93% 29.51 in 2.5 mi NW 10.4 mph - 0.00 in Rain Light Rain
3:04 AM 44.6 °F 39.7 °F 42.8 °F 93% 29.51 in 2.5 mi NW 9.2 mph - 0.01 in Rain Light Rain
3:13 AM 44.6 °F 40.7 °F 42.8 °F 93% 29.52 in 3.0 mi WNW 6.9 mph - 0.02 in Rain Light Rain
3:26 AM 44.6 °F 40.7 °F 42.8 °F 93% 29.53 in 2.5 mi WNW 6.9 mph - 0.03 in Rain Light Rain
3:53 AM 45.0 °F 38.5 °F 42.1 °F 90% 29.54 in 4.0 mi WNW 13.8 mph - 0.09 in Rain Rain
4:53 AM 43.0 °F 36.4 °F 39.9 °F 89% 29.54 in 8.0 mi WNW 12.7 mph - 0.06 in Rain Light Rain
5:53 AM 43.0 °F 36.0 °F 39.9 °F 89% 29.57 in 10.0 mi WNW 13.8 mph - 0.01 in Rain Light Rain
6:46 AM 44.6 °F 37.2 °F 41.0 °F 87% 29.59 in 2.5 mi West 17.3 mph 24.2 mph 0.00 in   Overcast
6:53 AM 43.0 °F 35.4 °F 41.0 °F 93% 29.60 in 2.5 mi West 16.1 mph - 0.00 in   Overcast
7:12 AM 42.8 °F 33.5 °F 39.2 °F 87% 29.60 in 3.0 mi West 23.0 mph 28.8 mph 0.01 in Rain Light Rain
7:22 AM 42.8 °F 34.3 °F 39.2 °F 87% 29.61 in 2.5 mi West 19.6 mph 26.5 mph 0.01 in Rain Light Rain
7:30 AM 42.8 °F 33.5 °F 37.4 °F 81% 29.61 in 4.0 mi West 23.0 mph 28.8 mph 0.01 in   Overcast
7:45 AM 42.8 °F 34.5 °F 37.4 °F 81% 29.62 in 7.0 mi West 18.4 mph - 0.01 in   Overcast
7:53 AM 42.1 °F 33.3 °F 37.0 °F 82% 29.64 in 8.0 mi West 19.6 mph - 0.01 in   Overcast
8:53 AM 41.0 °F 33.1 °F 36.0 °F 82% 29.65 in 7.0 mi WSW 15.0 mph - 0.00 in Rain Light Rain
9:08 AM 42.8 °F 35.1 °F 35.6 °F 76% 29.65 in 10.0 mi WSW 16.1 mph - 0.00 in   Overcast
9:53 AM 41.0 °F 32.5 °F 34.0 °F 76% 29.67 in 10.0 mi West 17.3 mph - 0.00 in   Overcast
10:53 AM 41.0 °F 32.5 °F 33.1 °F 73% 29.69 in 10.0 mi WSW 17.3 mph - N/A   Overcast
11:53 AM 39.9 °F 30.5 °F 30.9 °F 70% 29.71 in 10.0 mi WSW 19.6 mph 26.5 mph N/A   Overcast
12:53 PM 41.0 °F 32.2 °F 30.0 °F 65% 29.73 in 10.0 mi SW 18.4 mph - N/A   Overcast
1:00 PM 41.0 °F 31.6 °F 30.2 °F 65% 29.72 in 10.0 mi WSW 20.7 mph - N/A   Overcast
1:36 PM 42.8 °F 35.1 °F 30.2 °F 61% 29.72 in 1.8 mi WSW 16.1 mph 25.3 mph N/A   Haze
1:51 PM 42.8 °F 35.1 °F 30.2 °F 61% 29.72 in 10.0 mi WSW 16.1 mph 25.3 mph N/A   Overcast
1:53 PM 42.1 °F 34.9 °F 30.0 °F 62% 29.73 in 10.0 mi WSW 13.8 mph 25.3 mph N/A   Overcast
2:25 PM 42.8 °F 34.8 °F 30.2 °F 61% 29.74 in 10.0 mi WSW 17.3 mph 24.2 mph N/A   Overcast
2:39 PM 42.8 °F 34.8 °F 32.0 °F 66% 29.74 in 10.0 mi West 17.3 mph 27.6 mph 0.00 in Rain Light Rain
2:53 PM 42.1 °F 36.1 °F 32.0 °F 67% 29.76 in 10.0 mi SW 10.4 mph - 0.00 in   Overcast
3:53 PM 43.0 °F 34.8 °F 30.9 °F 62% 29.77 in 10.0 mi WSW 18.4 mph - 0.00 in   Overcast
4:53 PM 43.0 °F 35.7 °F 33.1 °F 68% 29.78 in 10.0 mi WSW 15.0 mph - N/A   Overcast
5:53 PM 43.0 °F 34.2 °F 32.0 °F 65% 29.81 in 10.0 mi WSW 20.7 mph 25.3 mph N/A   Overcast
6:53 PM 43.0 °F 34.8 °F 32.0 °F 65% 29.82 in 10.0 mi WSW 18.4 mph 24.2 mph N/A   Overcast
7:53 PM 42.1 °F 34.9 °F 32.0 °F 67% 29.84 in 10.0 mi WSW 13.8 mph - N/A   Overcast
8:53 PM 42.1 °F 34.5 °F 33.1 °F 70% 29.85 in 10.0 mi WSW 15.0 mph - N/A   Overcast
9:32 PM 42.8 °F 34.3 °F 33.8 °F 70% 29.84 in 10.0 mi WSW 19.6 mph 27.6 mph N/A   Overcast
9:53 PM 42.1 °F 34.2 °F 34.0 °F 73% 29.87 in 10.0 mi WSW 16.1 mph 24.2 mph N/A   Overcast
10:22 PM 42.8 °F 35.8 °F 35.6 °F 76% 29.86 in 10.0 mi WSW 13.8 mph - N/A   Overcast
10:53 PM 42.1 °F 34.5 °F 34.0 °F 73% 29.88 in 10.0 mi WSW 15.0 mph - N/A   Overcast
11:53 PM 42.1 °F 35.2 °F 34.0 °F 73% 29.88 in 10.0 mi WSW 12.7 mph 20.7 mph N/A   Overcast